• In Uzbekistan
  • List of Countries
  • For 7 days
  • Water Temperature
  • Weather Map
  • Weather Widgets
  • user-avatar
    Login

    Hourly Weather Alamli

    Today, 22 February, Saturday

    Time Temperature Precipitation Wind Pressure Humidity
    00:00 +7°C° 0 mm 4 mps 690 mmHg 63%
    01:00 +6°C° 0 mm 4 mps 690 mmHg 72%
    02:00 +5°C° 0 mm 4 mps 690 mmHg 81%
    03:00 +4°C° 0 mm 4 mps 690 mmHg 81%
    04:00 +4°C° 0 mm 3 mps 691 mmHg 82%
    05:00 +4°C° 0 mm 3 mps 691 mmHg 82%
    06:00 +4°C° 0 mm 3 mps 692 mmHg 83%
    07:00 +5°C° 0 mm 2 mps 692 mmHg 83%
    08:00 +5°C° 0 mm 2 mps 692 mmHg 84%
    09:00 +6°C° 0 mm 2 mps 693 mmHg 78%
    10:00 +8°C° 0 mm 3 mps 693 mmHg 72%
    11:00 +9°C° 0 mm 3 mps 694 mmHg 66%
    12:00 +10°C° 0 mm 3 mps 694 mmHg 64%
    13:00 +10°C° 0 mm 3 mps 693 mmHg 62%
    14:00 +11°C° 0 mm 3 mps 693 mmHg 59%
    15:00 +12°C° 0 mm 2 mps 693 mmHg 60%
    16:00 +12°C° 0 mm 2 mps 693 mmHg 61%
    17:00 +12°C° 0 mm 1 mps 693 mmHg 61%
    18:00 +9°C° 0 mm 2 mps 693 mmHg 67%
    19:00 +8°C° 0 mm 2 mps 693 mmHg 74%
    20:00 +7°C° 0 mm 3 mps 693 mmHg 80%
    21:00 +7°C° 0 mm 3 mps 693 mmHg 80%
    22:00 +5°C° 0 mm 3 mps 693 mmHg 80%
    23:00 +5°C° 0 mm 3 mps 693 mmHg 79%

    Tomorrow, 23 February, Sunday

    Time Temperature Precipitation Wind Pressure Humidity
    00:00 +5°C° 0 mm 3 mps 692 mmHg 78%
    01:00 +5°C° 0 mm 3 mps 692 mmHg 76%
    02:00 +4°C° 0 mm 3 mps 691 mmHg 74%
    03:00 +5°C° 0 mm 2 mps 691 mmHg 74%
    04:00 +5°C° 0 mm 2 mps 691 mmHg 73%
    05:00 +5°C° 0 mm 2 mps 691 mmHg 72%
    06:00 +5°C° 0 mm 2 mps 690 mmHg 72%
    07:00 +4°C° 0 mm 3 mps 690 mmHg 72%
    08:00 +4°C° 0 mm 3 mps 690 mmHg 72%
    09:00 +7°C° 0 mm 3 mps 690 mmHg 66%
    10:00 +9°C° 0 mm 3 mps 691 mmHg 60%
    11:00 +10°C° 0 mm 3 mps 691 mmHg 54%
    12:00 +12°C° 0 mm 3 mps 690 mmHg 50%
    13:00 +13°C° 0 mm 3 mps 690 mmHg 46%
    14:00 +15°C° 0 mm 2 mps 690 mmHg 42%
    15:00 +15°C° 0 mm 2 mps 689 mmHg 45%
    16:00 +14°C° 0 mm 2 mps 689 mmHg 48%
    17:00 +14°C° 0 mm 2 mps 688 mmHg 51%
    18:00 +13°C° 0 mm 2 mps 688 mmHg 56%
    19:00 +12°C° 0 mm 2 mps 689 mmHg 60%
    20:00 +10°C° 0 mm 1 mps 689 mmHg 64%
    21:00 +10°C° 0.1 mm 1 mps 689 mmHg 67%
    22:00 +10°C° 0.1 mm 1 mps 689 mmHg 71%
    23:00 +9°C° 0.1 mm 1 mps 689 mmHg 75%

    Day after tomorrow, 24 February, Monday

    Time Temperature Precipitation Wind Pressure Humidity
    00:00 +9°C° 0.1 mm 1 mps 689 mmHg 76%
    01:00 +9°C° 0.1 mm 1 mps 689 mmHg 77%
    02:00 +7°C° 0.1 mm 2 mps 688 mmHg 78%
    03:00 +8°C° 0.3 mm 1 mps 688 mmHg 78%
    04:00 +9°C° 0.3 mm 1 mps 688 mmHg 78%
    05:00 +9°C° 0.3 mm 1 mps 688 mmHg 79%
    06:00 +9°C° 0.4 mm 1 mps 688 mmHg 80%
    07:00 +9°C° 0.4 mm 1 mps 689 mmHg 81%
    08:00 +9°C° 0.4 mm 1 mps 689 mmHg 82%
    09:00 +9°C° 0.2 mm 2 mps 689 mmHg 79%
    10:00 +10°C° 0.2 mm 2 mps 690 mmHg 75%
    11:00 +12°C° 0.2 mm 2 mps 690 mmHg 72%
    12:00 +12°C° 0.2 mm 3 mps 690 mmHg 69%
    13:00 +12°C° 0.2 mm 3 mps 689 mmHg 66%
    14:00 +13°C° 0.2 mm 3 mps 689 mmHg 63%
    15:00 +13°C° 0.4 mm 3 mps 689 mmHg 63%
    16:00 +14°C° 0.4 mm 2 mps 689 mmHg 64%
    17:00 +14°C° 0.4 mm 2 mps 689 mmHg 64%
    18:00 +13°C° 0.1 mm 1 mps 689 mmHg 69%
    19:00 +11°C° 0.1 mm 1 mps 689 mmHg 74%
    20:00 +10°C° 0.1 mm 1 mps 689 mmHg 79%
    21:00 +10°C° 0 mm 1 mps 689 mmHg 79%
    22:00 +10°C° 0 mm 1 mps 688 mmHg 79%
    23:00 +10°C° 0 mm 1 mps 688 mmHg 80%

    25 February, Tuesday

    Time Temperature Precipitation Wind Pressure Humidity
    00:00 +9°C° 0 mm 1 mps 688 mmHg 77%
    01:00 +9°C° 0 mm 1 mps 688 mmHg 75%
    02:00 +9°C° 0 mm 1 mps 688 mmHg 73%
    03:00 +9°C° 0.1 mm 1 mps 688 mmHg 71%
    04:00 +9°C° 0.1 mm 1 mps 688 mmHg 70%
    05:00 +9°C° 0.1 mm 1 mps 688 mmHg 68%
    06:00 +9°C° 0 mm 1 mps 688 mmHg 66%
    07:00 +9°C° 0 mm 1 mps 688 mmHg 63%
    08:00 +9°C° 0 mm 1 mps 688 mmHg 61%
    09:00 +11°C° 0 mm 1 mps 688 mmHg 54%
    10:00 +13°C° 0 mm 1 mps 688 mmHg 47%
    11:00 +15°C° 0 mm 1 mps 688 mmHg 41%
    12:00 +15°C° 0 mm 1 mps 688 mmHg 38%
    13:00 +16°C° 0 mm 1 mps 688 mmHg 35%
    14:00 +18°C° 0 mm 1 mps 688 mmHg 33%
    15:00 +18°C° 0 mm 1 mps 687 mmHg 33%
    16:00 +18°C° 0 mm 1 mps 687 mmHg 34%
    17:00 +19°C° 0 mm 1 mps 687 mmHg 35%
    18:00 +16°C° 0 mm 2 mps 687 mmHg 39%
    19:00 +15°C° 0 mm 2 mps 687 mmHg 43%
    20:00 +13°C° 0 mm 2 mps 687 mmHg 48%
    21:00 +13°C° 0 mm 2 mps 687 mmHg 46%
    22:00 +13°C° 0 mm 2 mps 687 mmHg 45%
    23:00 +12°C° 0 mm 2 mps 687 mmHg 44%

    26 February, Wednesday

    Time Temperature Precipitation Wind Pressure Humidity
    00:00 +11°C° 0 mm 3 mps 687 mmHg 42%
    01:00 +11°C° 0 mm 3 mps 687 mmHg 40%
    02:00 +11°C° 0 mm 3 mps 686 mmHg 38%
    03:00 +11°C° 0 mm 3 mps 686 mmHg 37%
    04:00 +11°C° 0 mm 3 mps 686 mmHg 35%
    05:00 +11°C° 0 mm 4 mps 686 mmHg 34%
    06:00 +11°C° 0 mm 3 mps 686 mmHg 34%
    07:00 +12°C° 0 mm 3 mps 685 mmHg 34%
    08:00 +12°C° 0 mm 3 mps 685 mmHg 35%
    09:00 +14°C° 0 mm 3 mps 685 mmHg 33%
    10:00 +17°C° 0 mm 2 mps 685 mmHg 31%
    11:00 +19°C° 0 mm 2 mps 686 mmHg 29%
    12:00 +19°C° 0 mm 2 mps 685 mmHg 32%
    13:00 +19°C° 0 mm 3 mps 685 mmHg 34%
    14:00 +19°C° 0 mm 3 mps 684 mmHg 37%
    15:00 +17°C° 0.5 mm 5 mps 684 mmHg 45%
    16:00 +15°C° 0.5 mm 6 mps 683 mmHg 53%
    17:00 +14°C° 0.5 mm 7 mps 683 mmHg 61%
    18:00 +14°C° 0.3 mm 6 mps 683 mmHg 61%
    19:00 +14°C° 0.3 mm 6 mps 683 mmHg 60%
    20:00 +14°C° 0.3 mm 5 mps 683 mmHg 59%
    21:00 +14°C° 0 mm 4 mps 683 mmHg 59%
    22:00 +14°C° 0 mm 3 mps 683 mmHg 59%
    23:00 +15°C° 0 mm 2 mps 683 mmHg 58%

    27 February, Thursday

    Time Temperature Precipitation Wind Pressure Humidity
    00:00 +14°C° 1.5 mm 2 mps 683 mmHg 70%
    01:00 +11°C° 1.5 mm 3 mps 683 mmHg 81%
    02:00 +10°C° 1.5 mm 3 mps 683 mmHg 93%
    03:00 +10°C° 2 mm 4 mps 683 mmHg 93%
    04:00 +10°C° 2 mm 4 mps 684 mmHg 93%
    05:00 +8°C° 2 mm 5 mps 684 mmHg 93%
    06:00 +8°C° 1.7 mm 5 mps 685 mmHg 93%
    07:00 +7°C° 1.7 mm 5 mps 685 mmHg 93%
    08:00 +6°C° 1.7 mm 5 mps 686 mmHg 92%
    09:00 +6°C° 0.4 mm 5 mps 686 mmHg 92%
    10:00 +6°C° 0.4 mm 5 mps 687 mmHg 91%
    11:00 +6°C° 0.4 mm 5 mps 687 mmHg 90%
    12:00 +5°C° 0.2 mm 4 mps 688 mmHg 90%
    13:00 +5°C° 0.2 mm 4 mps 688 mmHg 89%
    14:00 +5°C° 0.2 mm 3 mps 688 mmHg 89%
    15:00 +4°C° 0.4 mm 3 mps 688 mmHg 90%
    16:00 +5°C° 0.4 mm 2 mps 688 mmHg 90%
    17:00 +5°C° 0.4 mm 2 mps 688 mmHg 91%
    18:00 +4°C° 0.5 mm 2 mps 689 mmHg 93%
    19:00 +4°C° 0.5 mm 2 mps 689 mmHg 94%
    20:00 +5°C° 0.5 mm 1 mps 689 mmHg 96%
    21:00 +5°C° 0.2 mm 1 mps 689 mmHg 96%
    22:00 +5°C° 0.2 mm 1 mps 690 mmHg 96%
    23:00 +5°C° 0.2 mm 1 mps 690 mmHg 96%
    Show more